Rbgn^[z[y[W
メイン
   新天体発見情報
     Comet P/2021 N4
投稿するにはまず登録を

スレッド表示 | 古いものから 前のトピック | 次のトピック | 下へ
投稿者 スレッド
佐藤裕久
投稿日時: 2021-8-18 22:53
モデレータ
登録日: 2005-6-12
居住地: 日本
投稿: 2661
オンライン
Comet P/2021 N4

Y. Ramanjooloo (ハワイ大学、天文学研究所)の通報によると、8月9日、Haleakalaにある
Pan-STARRS1 1.8-m Ritchey-Chretien反射望遠鏡で得た画像から彗星を発見した。
45秒4枚のw-バンド露出では、1".5-1".6のシーイングで、ほとんど恒星状のコマが見えるが、
しかし、まっすぐで、薄く、p.a. 約235°に10"-12"のかすかな尾がある。
先月一夜のPan-STARRS1 観測が別の天体として提出されて、小惑星センターの"分離したトラ
ックレットファイル" (ITF)の中にあった。
R. Weryk (西オンタリオ大学,物理および天文学科)によると、8月10.51日UT、H. Januszewski 
とT.Burdullisが、Mauna Keaにある3.6-m Canada-France-Hawaii望遠鏡で得た60秒3枚のgri-
バンド画像から、1".0のシーイングで、確かに彗星に見え、非常に集光した1".4 (半値全幅:
FWHM)のコマとp.a.230°に14"以上のまっすぐな尾がある。

彗星機能の報告は次のとおり、

OC   Date        Reporter           Coma    Tail    PA          Exposures
F51  2021-08-09  Y. Ramanjooloo     1".7     12"    236           4x45s
568  2021-08-10  R. Weryk           0".4     14"    230           3x60s

発見位置は次のとおり、

     2021 UT             R.A. (2000) Decl.       Mag.
     July  8.53018   23 07 47.20   + 9 16 09.5   22.3
           8.54163   23 07 47.49   + 9 16 15.3   22.4
           8.55306   23 07 47.77   + 9 16 21.1   22.3
     Aug.  9.57479   23 09 45.64   +12 12 27.6   21.7
           9.58613   23 09 45.37   +12 12 28.8   21.6
           9.59739   23 09 45.15   +12 12 29.9   21.5
           9.60859   23 09 44.89   +12 12 31.2   21.5

MPCの楕円軌道要素、位置推算表は次のとおり、

Orbital elements:
    P/2021 N4                                                                   
Epoch 2021 Aug. 14.0 TT = JDT 2459440.5                                         
T 2021 Aug. 29.05946 TT                                 Rudenko                 
q   2.3019795            (2000.0)            P               Q                  
n   0.18564323     Peri.  104.74669     +0.94833571     +0.27947096             
a   3.0433365      Node   239.22550     -0.31357148     +0.89767660             
e   0.2436001      Incl.   10.06691     +0.04829397     +0.34069445             
P   5.31                                                                        
From 15 observations 2021 July 8-Aug. 14, mean residual 0".3.                   
                                                                                
    P/2021 N4                                                                   
Epoch 2026 Dec. 26.0 TT = JDT 2461400.5                                         
T 2026 Dec. 19.04876 TT                                 Rudenko                 
q   2.3086635            (2000.0)            P               Q                  
n   0.18554011     Peri.  104.65766     +0.94770417     +0.28164427             
a   3.0444640      Node   239.18364     -0.31559851     +0.89699894             
e   0.2416847      Incl.   10.06637     +0.04748039     +0.34068960             
P   5.31                                                                        
From 15 observations 2021 July 8-Aug. 14, mean residual 0".3.                   
                                                                                
    P/2021 N4                                                                   
Epoch 2021 July 5.0 TT = JDT 2459400.5                                          
T 2021 Aug. 29.11251 TT                                 Rudenko                 
q   2.3019515            (2000.0)            P               Q                  
n   0.18562228     Peri.  104.75364     +0.94841796     +0.27918400             
a   3.0435655      Node   239.23577     -0.31330611     +0.89776038             
e   0.2436662      Incl.   10.06680     +0.04840109     +0.34070897             
P   5.31                                                                        
From 15 observations 2021 July 8-Aug. 14, mean residual 0".3.                   
                                                                                
Ephemeris:
Date    TT    R. A. (2000) Decl.     Delta      r    Elong.  Phase   m1
2021 07 17    23 10 44.5 +10 21 54   1.6273  2.3145   120.4    22.2  21.7
...
2021 08 01    23 11 42.9 +11 46 44   1.4927  2.3073   133.0    18.8  21.5
...
2021 08 09    23 09 56.9 +12 11 20   1.4336  2.3047   140.0    16.4  21.4
...
2021 08 15    23 07 39.2 +12 18 46   1.3964  2.3033   145.4    14.4  21.3
2021 08 16    23 07 11.9 +12 19 02   1.3908  2.3031   146.3    14.1  21.3
2021 08 17    23 06 43.4 +12 19 01   1.3855  2.3030   147.2    13.8  21.3
...
2021 08 23    23 03 30.7 +12 13 06   1.3575  2.3022   152.5    11.7  21.3
...
2021 08 31    22 58 28.5 +11 49 38   1.3319  2.3020   158.7     9.2  21.2
...
2021 09 15    22 48 22.9 +10 23 17   1.3239  2.3039   162.8     7.4  21.2

(MPEC 2021-Q01、CBET 5019)

スレッド表示 | 古いものから 前のトピック | 次のトピック | トップ

投稿するにはまず登録を
 
© 1999 Tsutomu Seki.